Total_Precipitation_Accumulation
0.01 0.03 0.03 0.03 0.04 0.06 0.06 0.07 0.07 0.07 0.07 0.06 0.05 0.04 0.03 0.02 0.02 0.01 0.00 0.00 0.00 0.00
0.02 0.03 0.02 0.02 0.04 0.04 0.05 0.07 0.10 0.09 0.09 0.08 0.05 0.04 0.02 0.02 0.01 0.01 0.01 0.01 0.02 0.02
0.04 0.03 0.04 0.04 0.04 0.04 0.04 0.06 0.07 0.07 0.07 0.06 0.05 0.03 0.01 0.01 0.01 0.00 0.00 0.01 0.01 0.00
0.04 0.05 0.05 0.05 0.05 0.05 0.05 0.06 0.08 0.07 0.07 0.06 0.03 0.02 0.01 0.00 0.00 0.00 0.00 0.01 0.00 0.00
0.02 0.04 0.06 0.06 0.06 0.05 0.06 0.06 0.06 0.09 0.12 0.13 0.08 0.04 0.04 0.04 0.03 0.03 0.03 0.04 0.04 0.04
0.03 0.04 0.05 0.06 0.08 0.06 0.06 0.06 0.06 0.04 0.04 0.07 0.10 0.13 0.14 0.11 0.08 0.08 0.07 0.07 0.06 0.04
0.06 0.05 0.03 0.04 0.05 0.06 0.06 0.05 0.03 0.03 0.06 0.10 0.11 0.10 0.10 0.10 0.11 0.10 0.10 0.09 0.07 0.04
0.09 0.06 0.03 0.03 0.04 0.04 0.04 0.08 0.09 0.05 0.04 0.04 0.06 0.11 0.14 0.15 0.14 0.10 0.10 0.09 0.08 0.07
0.06 0.07 0.05 0.05 0.06 0.04 0.04 0.07 0.14 0.18 0.11 0.06 0.05 0.10 0.07 0.04 0.05 0.09 0.11 0.11 0.08 0.06
0.14 0.07 0.18 0.14 0.15 0.18 0.17 0.12 0.16 0.17 0.19 0.22 0.24 0.33 0.31 0.30 0.28 0.26 0.20 0.13 0.09 0.05
0.22 0.23 0.43 0.64 0.55 0.59 0.62 0.64 0.60 0.52 0.49 0.51 0.54 0.52 0.41 0.26 0.17 0.13 0.10 0.07 0.04 0.01
0.55 0.59 0.67 0.79 0.96 0.93 0.67 0.60 0.53 0.45 0.43 0.36 0.28 0.19 0.11 0.07 0.04 0.02 0.01 0.00 0.00 0.00
0.87 0.84 0.99 0.76 0.61 0.59 0.49 0.29 0.25 0.28 0.22 0.13 0.07 0.04 0.02 0.01 0.00 0.00 0.00 0.00 0.00 0.00
0.61 0.53 0.48 0.49 0.33 0.27 0.23 0.17 0.10 0.05 0.03 0.01 0.00 0.00 0.00 0.00 0.00 0.00 0.00 0.00 0.00 0.00